sat.trackr.live / text

‹ back to catalog

STARLINK-11458 [DTC]

NORAD 62982 · 2025-031B

PAYLOAD ACTIVE UNKNOWN

§ Identity

Operator
Country
US
Launch date
2025-02-11
Launch site
AFETR
Launch vehicle
Mass (kg)
RCS (m²)

Purposes: comms

External: N2YO · Heavens-Above · Gunter

§ Orbital elements

Epoch: 2026-09-21T17:11:02.997024Z

Period
91.67 min
Inclination
42.9989°
Eccentricity
0.0000335
Mean motion
15.70891213 rev/d
Perigee alt
356.1 km
Apogee alt
356.6 km
Semi-major
6,734.5 km
B*
1.6831e-3
RAAN
259.7562°
Arg perigee
266.3404°
Mean anomaly
93.7425°
Rev number
9,357

§ Raw data

STARLINK-11458 [DTC]1 62982U 25031B   26264.71600691  .00221865  00000+0  16831-2 0  99922 62982  42.9989 259.7562 0000335 266.3404  93.7425 15.70891213 93573

JSON: /api/v1/satellites/62982 · /tle

For live sub-satellite position, see the globe view (requires WebGL).

§ Visibility from observer

Set your observer location to see the next 7 days of passes ≥ 10°. The values pass through the URL so the page stays shareable.

No JS? Fill the form by hand. The geolocation button needs JavaScript.